Location: Unnamed
(48.6007°N, 2.4808°E)
Time: 16:30:48
(UTC+01:00)

NANOSAT C BR1 - Visible Passes

Search period start: 20 March 2023 00:00
Search period end: 30 March 2023 01:00
Orbit: 577 x 590 km, 98.0° (Epoch: 19 March)

Date Brightness Start Highest point End Pass type
(mag) Time Alt. Az. Time Alt. Az. Time Alt. Az.
20 Mar ? 02:50:19 10° NE 02:51:21 16° NE 02:51:21 16° NE visible
20 Mar ? 04:25:32 10° N 04:27:47 25° NNW 04:27:47 25° NNW visible
21 Mar ? 02:56:16 10° NNE 02:57:37 18° NE 02:57:37 18° NE visible
21 Mar ? 04:31:41 10° N 04:34:03 24° NW 04:34:03 24° NW visible
22 Mar ? 03:02:14 10° NNE 03:03:53 21° NE 03:03:53 21° NE visible
22 Mar ? 04:37:50 10° N 04:40:17 23° NW 04:40:17 23° NW visible
23 Mar ? 03:08:12 10° NNE 03:10:06 24° NE 03:10:06 24° NE visible
23 Mar ? 04:44:00 10° NNW 04:46:31 22° NW 04:46:31 22° NW visible
24 Mar ? 03:14:09 10° NNE 03:16:19 27° NE 03:16:19 27° NE visible
24 Mar ? 04:50:10 10° NNW 04:52:44 20° NW 04:52:44 20° NW visible
25 Mar ? 03:20:07 10° NNE 03:22:31 31° NE 03:22:31 31° NE visible
25 Mar ? 04:56:20 10° NNW 04:58:56 18° WNW 04:58:56 18° WNW visible
26 Mar ? 04:26:04 10° NNE 04:28:42 36° NE 04:28:42 36° NE visible
26 Mar ? 06:02:31 10° NNW 06:05:06 16° WNW 06:05:06 16° WNW visible
27 Mar ? 04:32:01 10° NNE 04:34:52 42° NNE 04:34:52 42° NNE visible
27 Mar ? 06:08:44 10° NNW 06:11:01 15° WNW 06:11:17 14° WNW visible
28 Mar ? 04:37:58 10° NNE 04:41:01 48° NNE 04:41:01 48° NNE visible
28 Mar ? 06:15:00 10° NNW 06:16:54 13° WNW 06:17:26 13° WNW visible
29 Mar ? 04:43:55 10° NNE 04:47:09 54° NNE 04:47:09 54° NNE visible
29 Mar ? 06:21:22 10° NW 06:22:45 12° WNW 06:23:34 11° WNW visible
